CW5053 Weather Reports


Display with metric or nautical units.
time (UTC)temp
F
wind
direction
speed
MPH
gust
MPH
rain 1hr
in
rain 24hr
in
rain mn
in
humidity
%
barometer
mb
20210726021223 81 332 3.0 13.0 0.00 0.00 0.00 53 1016.1
20210726020716 82 281 5.0 13.0 0.00 0.00 0.00 52 1016.0
20210726020229 82 248 3.0 9.0 0.00 0.00 0.00 52 1016.0
20210726015719 82 314 4.0 9.0 0.00 0.00 0.00 51 1016.0
20210726015232 82 221 3.0 11.0 0.00 0.00 0.00 51 1016.1
20210726014722 82 84 4.0 11.0 0.00 0.00 0.00 51 1016.0
20210726014215 82 261 4.0 11.0 0.00 0.00 0.00 51 1016.0
20210726013713 83 327 7.0 11.0 0.00 0.00 0.00 50 1016.0
20210726013223 83 302 3.0 10.0 0.00 0.00 0.00 50 1016.0
20210726012716 83 317 4.0 12.0 0.00 0.00 0.00 50 1016.1
20210726012230 83 325 4.0 14.0 0.00 0.00 0.00 50 1016.1
20210726011721 83 313 6.0 14.0 0.00 0.00 0.00 50 1016.1
20210726011215 84 296 5.0 10.0 0.00 0.00 0.00 49 1016.1
20210726010728 84 287 3.0 13.0 0.00 0.00 0.00 50 1016.1
20210726010221 84 248 3.0 13.0 0.00 0.00 0.00 49 1016.1
20210726005718 84 247 5.0 14.0 0.00 0.00 0.00 49 1016.2
20210726005231 85 286 6.0 14.0 0.00 0.00 0.00 48 1016.3
20210726004724 86 275 6.0 13.0 0.00 0.00 0.00 47 1016.3
20210726004213 86 342 3.0 9.0 0.00 0.00 0.00 47 1016.4
20210726003726 85 56 4.0 12.0 0.00 0.00 0.00 48 1016.5
20210726003220 85 326 6.0 12.0 0.00 0.00 0.00 48 1016.5
20210726002713 85 260 7.0 13.0 0.00 0.00 0.00 47 1016.5
20210726002226 86 318 5.0 13.0 0.00 0.00 0.00 48 1016.5
20210726001723 86 261 4.0 12.0 0.00 0.00 0.00 48 1016.5
20210726001216 86 266 6.0 12.0 0.00 0.00 0.00 47 1016.5
20210726000220 86 39 5.0 11.0 0.00 0.00 0.00 47 1016.7
20210725235727 86 295 6.0 12.0 0.00 0.00 0.00 47 1016.8
20210725235219 86 319 4.0 15.0 0.00 0.00 0.00 47 1016.7
20210725234727 86 337 7.0 15.0 0.00 0.00 0.00 48 1016.8
20210725234220 86 343 9.0 14.0 0.00 0.00 0.00 47 1016.8
20210725233718 87 243 2.0 11.0 0.00 0.00 0.00 46 1016.8
20210725233231 86 259 5.0 16.0 0.00 0.00 0.00 48 1017.0
20210725232721 85 317 5.0 16.0 0.00 0.00 0.00 48 1017.2
20210725232231 86 264 7.0 12.0 0.00 0.00 0.00 47 1017.2
20210725231722 86 234 5.0 12.0 0.00 0.00 0.00 48 1017.2
20210725231214 86 254 6.0 12.0 0.00 0.00 0.00 47 1017.3
20210725230728 86 232 8.0 11.0 0.00 0.00 0.00 46 1017.3
20210725230221 86 259 7.0 12.0 0.00 0.00 0.00 46 1017.3
20210725225718 86 317 5.0 12.0 0.00 0.00 0.00 47 1017.3
20210725225231 86 273 3.0 13.0 0.00 0.00 0.00 47 1017.4
20210725224725 85 339 6.0 13.0 0.00 0.00 0.00 47 1017.5
20210725224216 86 247 7.0 13.0 0.00 0.00 0.00 47 1017.4
20210725223730 86 231 4.0 13.0 0.00 0.00 0.00 47 1017.5
20210725223223 86 210 6.0 13.0 0.00 0.00 0.00 47 1017.5
20210725222716 86 259 4.0 11.0 0.00 0.00 0.00 48 1017.6
20210725222213 85 217 6.0 12.0 0.00 0.00 0.00 47 1017.7
20210725221726 85 298 4.0 12.0 0.00 0.00 0.00 48 1017.7
20210725221220 86 273 7.0 12.0 0.00 0.00 0.00 47 1017.7
20210725220713 85 230 3.0 12.0 0.00 0.00 0.00 49 1017.7
20210725220225 84 288 6.0 11.0 0.00 0.00 0.00 50 1017.6
20210725215718 84 269 6.0 10.0 0.00 0.00 0.00 51 1017.7
20210725215231 84 206 6.0 11.0 0.00 0.00 0.00 51 1017.9
20210725214725 83 187 7.0 11.0 0.00 0.00 0.00 51 1017.9
20210725214222 83 199 7.0 11.0 0.00 0.00 0.00 51 1017.9
20210725213715 83 215 7.0 15.0 0.00 0.00 0.00 51 1018.0
20210725213229 83 232 8.0 15.0 0.00 0.00 0.00 51 1018.1
20210725212719 83 202 4.0 6.0 0.00 0.00 0.00 51 1018.0
20210725212213 82 238 3.0 8.0 0.00 0.00 0.00 53 1018.1
20210725211725 82 227 4.0 10.0 0.00 0.00 0.00 53 1018.2
20210725211219 81 238 6.0 10.0 0.00 0.00 0.00 54 1018.3
20210725210713 81 205 6.0 11.0 0.00 0.00 0.00 55 1018.4
20210725210229 80 209 6.0 11.0 0.00 0.00 0.00 54 1018.4
20210725205714 80 237 5.0 9.0 0.00 0.00 0.00 55 1018.3
20210725205228 80 207 6.0 10.0 0.00 0.00 0.00 55 1018.4
20210725204721 80 225 5.0 10.0 0.00 0.00 0.00 55 1018.5
20210725204215 79 215 3.0 9.0 0.00 0.00 0.00 57 1018.6
20210725203726 79 288 5.0 11.0 0.00 0.00 0.00 57 1018.8
20210725203220 79 226 7.0 11.0 0.00 0.00 0.00 56 1018.8
20210725202714 79 263 4.0 10.0 0.00 0.00 0.00 58 1018.8
20210725202230 79 187 7.0 10.0 0.00 0.00 0.00 56 1018.8
20210725201723 79 201 2.0 10.0 0.00 0.00 0.00 56 1018.9
20210725201213 79 279 5.0 10.0 0.00 0.00 0.00 58 1018.8
20210725200726 78 223 4.0 7.0 0.00 0.00 0.00 57 1018.9
20210725200220 79 227 5.0 10.0 0.00 0.00 0.00 56 1019.0
20210725195732 78 175 4.0 12.0 0.00 0.00 0.00 58 1018.9
20210725195225 78 239 6.0 12.0 0.00 0.00 0.00 58 1019.0
20210725194719 77 225 3.0 6.0 0.00 0.00 0.00 60 1018.9
20210725194216 77 329 4.0 9.0 0.00 0.00 0.00 59 1018.9
20210725193730 76 309 4.0 9.0 0.00 0.00 0.00 60 1019.0
20210725193222 76 255 5.0 10.0 0.00 0.00 0.00 60 1019.1
20210725192716 77 234 5.0 10.0 0.00 0.00 0.00 59 1019.1
20210725192230 76 214 3.0 7.0 0.00 0.00 0.00 62 1019.1
20210725191722 76 241 3.0 6.0 0.00 0.00 0.00 61 1019.1
20210725191215 76 187 3.0 9.0 0.00 0.00 0.00 61 1019.2
20210725190712 75 213 5.0 9.0 0.00 0.00 0.00 62 1019.1
20210725190226 75 212 5.0 8.0 0.00 0.00 0.00 62 1019.3
20210725185719 75 232 4.0 9.0 0.00 0.00 0.00 63 1019.3
20210725185213 75 217 6.0 8.0 0.00 0.00 0.00 64 1019.3
20210725184724 74 261 5.0 8.0 0.00 0.00 0.00 63 1019.3
20210725184217 74 211 3.0 8.0 0.00 0.00 0.00 64 1019.4
20210725183731 74 239 2.0 7.0 0.00 0.00 0.00 65 1019.4
20210725183224 74 226 3.0 7.0 0.00 0.00 0.00 65 1019.5
20210725182721 74 226 3.0 8.0 0.00 0.00 0.00 64 1019.5
20210725182232 74 251 3.0 8.0 0.00 0.00 0.00 65 1019.6
20210725181726 73 234 1.0 7.0 0.00 0.00 0.00 67 1019.6
20210725181218 72 240 3.0 7.0 0.00 0.00 0.00 69 1019.7
20210725180731 72 225 3.0 6.0 0.00 0.00 0.00 68 1019.7
20210725180225 72 240 2.0 8.0 0.00 0.00 0.00 69 1019.7
20210725175717 71 272 2.0 8.0 0.00 0.00 0.00 69 1019.8
20210725175231 71 238 2.0 8.0 0.00 0.00 0.00 71 1019.8
20210725174725 71 236 5.0 8.0 0.00 0.00 0.00 70 1019.7
20210725174218 71 218 4.0 8.0 0.00 0.00 0.00 71 1019.8
20210725173713 71 211 4.0 8.0 0.00 0.00 0.00 71 1019.7
20210725173225 71 263 3.0 8.0 0.00 0.00 0.00 72 1019.9
20210725172720 70 315 3.0 8.0 0.00 0.00 0.00 72 1019.8
20210725172229 70 215 5.0 8.0 0.00 0.00 0.00 72 1019.8
20210725171724 70 235 3.0 7.0 0.00 0.00 0.00 73 1020.1
20210725171216 70 227 4.0 7.0 0.00 0.00 0.00 73 1019.9
20210725170714 69 203 2.0 9.0 0.00 0.00 0.00 76 1020.1
20210725170227 69 232 5.0 9.0 0.00 0.00 0.00 74 1020.1
20210725165720 69 258 2.0 5.0 0.00 0.00 0.00 74 1020.3
20210725165214 69 188 3.0 5.0 0.00 0.00 0.00 75 1020.3
20210725164727 68 270 2.0 7.0 0.00 0.00 0.00 76 1020.4
20210725164220 68 269 3.0 7.0 0.00 0.00 0.00 77 1020.4
20210725163713 68 211 1.0 5.0 0.00 0.00 0.00 78 1020.4
20210725163226 67 252 2.0 5.0 0.00 0.00 0.00 78 1020.5
20210725162724 67 205 1.0 4.0 0.00 0.00 0.00 80 1020.4
20210725162217 66 188 1.0 5.0 0.00 0.00 0.00 80 1020.5
20210725161731 66 188 3.0 5.0 0.00 0.00 0.00 81 1020.6
20210725161222 66 219 3.0 5.0 0.00 0.00 0.00 82 1020.5
20210725160713 65 212 2.0 5.0 0.00 0.00 0.00 83 1020.6
20210725160226 65 212 2.0 6.0 0.00 0.00 0.00 84 1020.6
20210725155720 64 210 3.0 6.0 0.00 0.00 0.00 83 1020.6
20210725155216 64 192 4.0 5.0 0.00 0.00 0.00 85 1020.6
20210725154727 64 196 3.0 5.0 0.00 0.00 0.00 85 1020.5
20210725154221 63 236 3.0 5.0 0.00 0.00 0.00 86 1020.5
20210725153732 63 197 3.0 5.0 0.00 0.00 0.00 87 1020.5
20210725153217 62 234 3.0 4.0 0.00 0.00 0.00 87 1020.4
20210725152730 62 234 2.0 3.0 0.00 0.00 0.00 88 1020.4
20210725152223 62 234 1.0 3.0 0.00 0.00 0.00 90 1020.5
20210725151716 61 234 2.0 4.0 0.00 0.00 0.00 90 1020.5
20210725151213 61 234 2.0 4.0 0.00 0.00 0.00 90 1020.5
20210725150727 60 234 2.0 3.0 0.00 0.00 0.00 91 1020.4
20210725150220 60 234 2.0 3.0 0.00 0.00 0.00 92 1020.5
20210725145713 59 234 1.0 2.0 0.00 0.00 0.00 94 1020.5
20210725145226 59 234 1.0 2.0 0.00 0.00 0.00 94 1020.5
20210725144719 59 234 0.0 2.0 0.00 0.00 0.00 94 1020.5
20210725144212 59 234 0.0 2.0 0.00 0.00 0.00 94 1020.5
20210725143725 58 234 1.0 2.0 0.00 0.00 0.00 95 1020.5
20210725143224 58 234 2.0 2.0 0.00 0.00 0.00 95 1020.4
20210725142729 58 234 2.0 2.0 0.00 0.00 0.00 95 1020.5
20210725142221 58 234 0.0 1.0 0.00 0.00 0.00 96 1020.4
20210725141722 58 234 0.0 1.0 0.00 0.00 0.00 96 1020.4
20210725141229 58 234 0.0 1.0 0.00 0.00 0.00 96 1020.3
20210725140722 57 234 0.0 1.0 0.00 0.00 0.00 96 1020.3
20210725140215 57 234 0.0 1.0 0.00 0.00 0.00 96 1020.3
20210725135728 57 234 0.0 1.0 0.00 0.00 0.00 97 1020.3
20210725135220 57 234 0.0 2.0 0.00 0.00 0.00 97 1020.3
20210725134717 57 234 1.0 2.0 0.00 0.00 0.00 96 1020.2
20210725134230 56 234 0.0 1.0 0.00 0.00 0.00 96 1020.2
20210725133723 56 234 0.0 1.0 0.00 0.00 0.00 96 1020.2
20210725133213 56 234 1.0 1.0 0.00 0.00 0.00 96 1020.1
20210725132725 56 234 0.0 1.0 0.00 0.00 0.00 96 1019.9
20210725132219 56 234 0.0 1.0 0.00 0.00 0.00 96 1019.9
20210725131731 56 234 0.0 1.0 0.00 0.00 0.00 96 1019.9
20210725131225 56 234 1.0 1.0 0.00 0.00 0.00 95 1019.9
20210725130722 56 234 0.0 1.0 0.00 0.00 0.00 95 1019.8
20210725130222 56 234 1.0 2.0 0.00 0.00 0.00 95 1019.8
20210725125713 56 234 1.0 2.0 0.00 0.00 0.00 96 1019.7
20210725125225 56 234 0.0 2.0 0.00 0.00 0.00 95 1019.7
20210725124718 56 234 1.0 2.0 0.00 0.00 0.00 95 1019.5
20210725124232 56 234 1.0 2.0 0.00 0.00 0.00 95 1019.6
20210725123722 56 234 1.0 2.0 0.00 0.00 0.00 95 1019.6
20210725123215 57 234 1.0 2.0 0.00 0.00 0.00 95 1019.6
20210725122731 57 234 1.0 2.0 0.00 0.00 0.00 95 1019.6
20210725122224 57 234 0.0 1.0 0.00 0.00 0.00 95 1019.6
20210725121718 57 234 0.0 2.0 0.00 0.00 0.00 94 1019.6
20210725121228 57 234 1.0 2.0 0.00 0.00 0.00 94 1019.5
20210725120721 57 234 1.0 2.0 0.00 0.00 0.00 95 1019.5
20210725120214 57 234 1.0 2.0 0.00 0.00 0.00 95 1019.5
20210725115728 57 234 0.0 1.0 0.00 0.00 0.00 95 1019.4
20210725115219 57 234 0.0 2.0 0.00 0.00 0.00 95 1019.4
20210725114734 57 234 0.0 2.0 0.00 0.00 0.00 94 1019.4
20210725114224 57 234 1.0 2.0 0.00 0.00 0.00 94 1019.3
20210725113716 57 234 1.0 2.0 0.00 0.00 0.00 94 1019.4
20210725113229 57 234 0.0 1.0 0.00 0.00 0.00 94 1019.4
20210725112722 57 234 1.0 1.0 0.00 0.00 0.00 94 1019.4
20210725112232 57 234 1.0 1.0 0.00 0.00 0.00 94 1019.4
20210725111726 57 234 1.0 1.0 0.00 0.00 0.00 93 1019.5
20210725111219 58 234 0.0 2.0 0.00 0.00 0.00 93 1019.5
20210725110716 58 234 1.0 2.0 0.00 0.00 0.00 93 1019.5
20210725110230 58 234 1.0 2.0 0.00 0.00 0.00 93 1019.5
20210725105723 58 234 1.0 2.0 0.00 0.00 0.00 93 1019.4
20210725105216 58 234 1.0 2.0 0.00 0.00 0.00 93 1019.4
20210725104730 58 234 1.0 2.0 0.00 0.00 0.00 93 1019.4
20210725104223 58 234 1.0 2.0 0.00 0.00 0.00 92 1019.4
20210725103733 58 234 1.0 2.0 0.00 0.00 0.00 92 1019.3
20210725103221 58 234 1.0 2.0 0.00 0.00 0.00 92 1019.3
20210725102718 58 234 1.0 2.0 0.00 0.00 0.00 91 1019.4
20210725102231 59 234 0.0 1.0 0.00 0.00 0.00 91 1019.3
20210725101724 59 234 0.0 1.0 0.00 0.00 0.00 91 1019.3
20210725101217 59 234 0.0 2.0 0.00 0.00 0.00 91 1019.3
20210725100731 59 234 0.0 2.0 0.00 0.00 0.00 91 1019.2
20210725100223 59 234 0.0 2.0 0.00 0.00 0.00 90 1019.1
20210725095717 60 234 1.0 2.0 0.00 0.00 0.00 90 1019.1
20210725095214 60 234 1.0 2.0 0.00 0.00 0.00 91 1019.1
20210725094727 60 234 1.0 2.0 0.00 0.00 0.00 90 1019.2
20210725094219 60 234 0.0 2.0 0.00 0.00 0.00 91 1019.1
20210725093713 60 234 1.0 2.0 0.00 0.00 0.00 90 1019.2
20210725093222 60 234 1.0 2.0 0.00 0.00 0.00 90 1019.1
20210725092716 60 234 0.0 2.0 0.00 0.00 0.00 90 1019.1
20210725092226 60 234 0.0 2.0 0.00 0.00 0.00 90 1019.3
20210725091720 60 234 1.0 3.0 0.00 0.00 0.00 90 1019.2
20210725091216 60 234 1.0 3.0 0.00 0.00 0.00 90 1019.2
20210725090729 61 234 1.0 2.0 0.00 0.00 0.00 90 1019.1
20210725090223 61 234 1.0 2.0 0.00 0.00 0.00 90 1019.1
20210725085713 61 234 1.0 2.0 0.00 0.00 0.00 89 1019.0
20210725085226 61 234 1.0 2.0 0.00 0.00 0.00 89 1019.0
20210725084720 61 234 1.0 2.0 0.00 0.00 0.00 89 1019.1
20210725084213 61 234 1.0 2.0 0.00 0.00 0.00 88 1019.0
20210725083726 62 234 0.0 2.0 0.00 0.00 0.00 89 1019.0
20210725083223 62 234 0.0 1.0 0.00 0.00 0.00 88 1019.0
20210725082715 62 234 0.0 1.0 0.00 0.00 0.00 88 1018.9
20210725082229 62 234 0.0 1.0 0.00 0.00 0.00 88 1018.9
20210725081722 62 234 0.0 2.0 0.00 0.00 0.00 87 1018.9
20210725081229 62 234 1.0 2.0 0.00 0.00 0.00 87 1018.9
20210725080719 62 234 1.0 2.0 0.00 0.00 0.00 87 1018.8
20210725080232 63 234 1.0 1.0 0.00 0.00 0.00 86 1018.8
20210725075723 63 234 0.0 1.0 0.00 0.00 0.00 87 1018.8
20210725075220 63 234 0.0 2.0 0.00 0.00 0.00 86 1018.8
20210725074730 63 234 1.0 2.0 0.00 0.00 0.00 86 1018.7
20210725074223 63 234 1.0 2.0 0.00 0.00 0.00 85 1018.8
20210725073717 63 234 1.0 2.0 0.00 0.00 0.00 85 1018.9
20210725073230 64 234 0.0 1.0 0.00 0.00 0.00 85 1018.9
20210725072724 64 234 0.0 1.0 0.00 0.00 0.00 84 1018.9
20210725072215 64 234 1.0 1.0 0.00 0.00 0.00 84 1018.8
20210725071728 64 234 0.0 2.0 0.00 0.00 0.00 84 1018.7
20210725071225 64 234 0.0 2.0 0.00 0.00 0.00 83 1018.6
20210725070717 64 234 1.0 2.0 0.00 0.00 0.00 84 1018.5
20210725070231 65 234 1.0 2.0 0.00 0.00 0.00 82 1018.6
20210725065722 65 234 1.0 2.0 0.00 0.00 0.00 82 1018.7
20210725065215 65 234 1.0 2.0 0.00 0.00 0.00 83 1018.6
20210725064729 65 234 1.0 2.0 0.00 0.00 0.00 82 1018.7
20210725064222 66 234 0.0 1.0 0.00 0.00 0.00 81 1018.7
20210725063712 66 234 0.0 1.0 0.00 0.00 0.00 81 1018.7
20210725063229 66 234 0.0 2.0 0.00 0.00 0.00 81 1018.8
20210725062723 66 234 1.0 2.0 0.00 0.00 0.00 80 1018.7
20210725062232 66 234 0.0 1.0 0.00 0.00 0.00 80 1018.8
20210725061725 66 234 1.0 2.0 0.00 0.00 0.00 80 1018.8
20210725061218 66 234 1.0 3.0 0.00 0.00 0.00 80 1018.8
20210725060731 66 234 1.0 3.0 0.00 0.00 0.00 80 1018.6
20210725060225 66 234 1.0 2.0 0.00 0.00 0.00 80 1018.6
20210725055718 66 234 1.0 2.0 0.00 0.00 0.00 79 1018.6
20210725055216 67 234 1.0 2.0 0.00 0.00 0.00 79 1018.6
20210725054725 67 234 1.0 1.0 0.00 0.00 0.00 78 1018.5
20210725054218 67 234 1.0 3.0 0.00 0.00 0.00 79 1018.4
20210725053731 67 234 2.0 3.0 0.00 0.00 0.00 77 1018.6
20210725053224 68 234 1.0 2.0 0.00 0.00 0.00 77 1018.6
20210725052718 68 234 1.0 2.0 0.00 0.00 0.00 76 1018.4
20210725052229 68 234 1.0 2.0 0.00 0.00 0.00 76 1018.4
20210725051719 68 234 1.0 2.0 0.00 0.00 0.00 75 1018.3
20210725051216 69 234 0.0 2.0 0.00 0.00 0.00 75 1018.3
20210725050726 69 234 1.0 3.0 0.00 0.00 0.00 74 1018.3
20210725050217 69 234 2.0 3.0 0.00 0.00 0.00 73 1018.3
20210725045727 70 234 0.0 2.0 0.00 0.00 0.00 73 1018.3
20210725045216 70 234 1.0 2.0 0.00 0.00 0.00 71 1018.3
20210725044729 71 234 1.0 2.0 0.00 0.00 0.00 71 1018.2
20210725044223 71 234 1.0 3.0 0.00 0.00 0.00 70 1018.2
20210725043715 71 234 1.0 3.0 0.00 0.00 0.00 70 1018.2
20210725043229 72 234 1.0 2.0 0.00 0.00 0.00 69 1018.1
20210725042721 72 234 1.0 2.0 0.00 0.00 0.00 68 1018.1
20210725042215 73 234 1.0 2.0 0.00 0.00 0.00 66 1018.1
20210725041727 74 234 1.0 2.0 0.00 0.00 0.00 65 1018.0
20210725041217 75 234 0.0 5.0 0.00 0.00 0.00 63 1017.9
20210725040732 75 234 2.0 5.0 0.00 0.00 0.00 63 1017.9
20210725040224 75 244 0.0 2.0 0.00 0.00 0.00 62 1018.0
20210725035717 76 244 1.0 4.0 0.00 0.00 0.00 61 1018.0
20210725035214 76 244 1.0 4.0 0.00 0.00 0.00 60 1018.0
20210725034728 77 243 2.0 4.0 0.00 0.00 0.00 59 1017.9
20210725034221 77 243 2.0 5.0 0.00 0.00 0.00 58 1017.9
20210725033751 78 247 3.0 5.0 0.00 0.00 0.00 57 1018.0
20210725033224 79 238 3.0 5.0 0.00 0.00 0.00 56 1018.0
20210725032717 79 253 3.0 6.0 0.00 0.00 0.00 54 1018.0
20210725032231 80 247 2.0 5.0 0.00 0.00 0.00 52 1017.8
20210725031723 80 315 1.0 5.0 0.00 0.00 0.00 51 1017.7
20210725031217 81 269 2.0 4.0 0.00 0.00 0.00 50 1017.7
20210725030731 81 264 2.0 8.0 0.00 0.00 0.00 49 1017.7
20210725030225 82 259 2.0 8.0 0.00 0.00 0.00 47 1017.6
20210725025718 82 257 4.0 9.0 0.00 0.00 0.00 46 1017.7
20210725025231 82 273 4.0 9.0 0.00 0.00 0.00 45 1017.7
20210725024716 83 311 3.0 10.0 0.00 0.00 0.00 44 1017.6
20210725024229 83 331 2.0 12.0 0.00 0.00 0.00 44 1017.6
20210725023722 83 281 4.0 12.0 0.00 0.00 0.00 44 1017.7
20210725023219 84 335 5.0 17.0 0.00 0.00 0.00 43 1017.6
20210725022731 84 318 8.0 17.0 0.00 0.00 0.00 42 1017.5
20210725022224 85 336 4.0 13.0 0.00 0.00 0.00 42 1017.5
20210725021718 85 327 6.0 11.0 0.00 0.00 0.00 42 1017.5